| time (UTC) | temp C | wind direction | speed KPH | gust KPH | rain 1hr cm | rain 24hr cm | rain mn cm | humidity % | barometer mb |
| 20260505000627 | -17 | 10 | 16.1 | 22.5 | 0.00 | 0.00 | 0.00 | 1008.0 | |
| 20260504235607 | -17 | 10 | 17.7 | 24.1 | 0.00 | 0.00 | 0.00 | 1008.1 | |
| 20260504235057 | -17 | 10 | 17.7 | 24.1 | 0.00 | 0.00 | 0.00 | 1008.2 | |
| 20260504234544 | -17 | 10 | 17.7 | 24.1 | 0.00 | 0.00 | 0.00 | 1008.3 | |
| 20260504234033 | -17 | 10 | 17.7 | 24.1 | 0.00 | 0.00 | 0.00 | 1008.3 | |
| 20260504233753 | -17 | 10 | 17.7 | 25.7 | 0.00 | 0.00 | 0.00 | 1008.2 | |
| 20260504233013 | -17 | 144 | 19.3 | 25.7 | 0.00 | 0.00 | 0.00 | 1008.3 | |
| 20260504232724 | -17 | 10 | 19.3 | 24.1 | 0.00 | 0.00 | 0.00 | 1008.3 | |
| 20260504231943 | -17 | 10 | 17.7 | 22.5 | 0.00 | 0.00 | 0.00 | 1008.4 | |
| 20260504231433 | -17 | 160 | 17.7 | 25.7 | 0.00 | 0.00 | 0.00 | 1008.4 | |
| 20260504230925 | -17 | 10 | 19.3 | 25.7 | 0.00 | 0.00 | 0.00 | 1008.6 | |
| 20260504230647 | -17 | 10 | 17.7 | 25.7 | 0.00 | 0.00 | 0.00 | 1008.5 | |
| 20260504230140 | -17 | 10 | 17.7 | 25.7 | 0.00 | 0.00 | 0.00 | 1008.5 | |
| 20260504225630 | -17 | 10 | 19.3 | 25.7 | 0.00 | 0.00 | 0.00 | 1008.5 | |
| 20260504225121 | -17 | 10 | 19.3 | 25.7 | 0.00 | 0.00 | 0.00 | 1008.4 | |
| 20260504224602 | -17 | 10 | 17.7 | 25.7 | 0.00 | 0.00 | 0.00 | 1008.5 | |
| 20260504223819 | -17 | 171 | 17.7 | 25.7 | 0.00 | 0.00 | 0.00 | 1008.4 | |
| 20260504223546 | -17 | 158 | 19.3 | 27.4 | 0.00 | 0.00 | 0.00 | 1008.4 | |
| 20260504222803 | -17 | 10 | 19.3 | 27.4 | 0.00 | 0.00 | 0.00 | 1008.5 | |
| 20260504222255 | -17 | 138 | 20.9 | 24.1 | 0.00 | 0.00 | 0.00 | 1008.5 | |
| 20260504221747 | -17 | 150 | 20.9 | 24.1 | 0.00 | 0.00 | 0.00 | 1008.6 | |
| 20260504221243 | -17 | 146 | 20.9 | 25.7 | 0.00 | 0.00 | 0.00 | 1008.7 | |
| 20260504220729 | -17 | 10 | 19.3 | 25.7 | 0.00 | 0.00 | 0.00 | 1008.6 | |
| 20260504220221 | -17 | 10 | 19.3 | 24.1 | 0.00 | 0.00 | 0.00 | 1008.6 | |
| 20260504215717 | -17 | 10 | 19.3 | 24.1 | 0.00 | 0.00 | 0.00 | 1008.8 | |
| 20260504215213 | -17 | 10 | 20.9 | 24.1 | 0.00 | 0.00 | 0.00 | 1008.8 | |
| 20260504214709 | -17 | 140 | 19.3 | 24.1 | 0.00 | 0.00 | 0.00 | 1008.9 | |
| 20260504214203 | -17 | 10 | 17.7 | 25.7 | 0.00 | 0.00 | 0.00 | 1009.0 | |
| 20260504213659 | -17 | 10 | 17.7 | 22.5 | 0.00 | 0.00 | 0.00 | 1009.1 | |
| 20260504213152 | -17 | 163 | 19.3 | 22.5 | 0.00 | 0.00 | 0.00 | 1009.1 | |
| 20260504212651 | -17 | 10 | 19.3 | 22.5 | 0.00 | 0.00 | 0.00 | 1009.2 | |
| 20260504212148 | -17 | 10 | 17.7 | 22.5 | 0.00 | 0.00 | 0.00 | 1009.3 | |
| 20260504211645 | -17 | 10 | 19.3 | 22.5 | 0.00 | 0.00 | 0.00 | 1009.5 | |
| 20260504211414 | -17 | 10 | 19.3 | 24.1 | 0.00 | 0.00 | 0.00 | 1009.6 | |
| 20260504210907 | -17 | 10 | 19.3 | 24.1 | 0.00 | 0.00 | 0.00 | 1009.6 | |
| 20260504210133 | -17 | 10 | 17.7 | 24.1 | 0.00 | 0.00 | 0.00 | 1009.7 | |
| 20260504205628 | -17 | 10 | 19.3 | 24.1 | 0.00 | 0.00 | 0.00 | 1009.7 | |
| 20260504205353 | -17 | 10 | 19.3 | 24.1 | 0.00 | 0.00 | 0.00 | 1009.8 | |
| 20260504204615 | -17 | 10 | 19.3 | 24.1 | 0.00 | 0.00 | 0.00 | 1009.8 | |
| 20260504204112 | -17 | 10 | 19.3 | 24.1 | 0.00 | 0.00 | 0.00 | 1009.9 | |
| 20260504203557 | -17 | 10 | 19.3 | 24.1 | 0.00 | 0.00 | 0.00 | 1009.9 | |
| 20260504203054 | -17 | 10 | 17.7 | 24.1 | 0.00 | 0.00 | 0.00 | 1010.0 | |
| 20260504202546 | -17 | 10 | 19.3 | 24.1 | 0.00 | 0.00 | 0.00 | 1010.2 | |
| 20260504202040 | -17 | 10 | 19.3 | 24.1 | 0.00 | 0.00 | 0.00 | 1010.2 | |
| 20260504201032 | -17 | 10 | 19.3 | 24.1 | 0.00 | 0.00 | 0.00 | 1010.1 | |
| 20260504200754 | -17 | 152 | 19.3 | 24.1 | 0.00 | 0.00 | 0.00 | 1010.1 | |
| 20260504200016 | -17 | 10 | 19.3 | 22.5 | 0.00 | 0.00 | 0.00 | 1010.2 | |
| 20260504195514 | -17 | 10 | 19.3 | 25.7 | 0.00 | 0.00 | 0.00 | 1010.4 | |
| 20260504195008 | -17 | 160 | 19.3 | 25.7 | 0.00 | 0.00 | 0.00 | 1010.4 | |
| 20260504194502 | -17 | 10 | 17.7 | 24.1 | 0.00 | 0.00 | 0.00 | 1010.5 | |
| 20260504193958 | -17 | 10 | 17.7 | 24.1 | 0.00 | 0.00 | 0.00 | 1010.6 | |
| 20260504193450 | -17 | 145 | 17.7 | 22.5 | 0.00 | 0.00 | 0.00 | 1010.7 | |
| 20260504192948 | -17 | 10 | 17.7 | 24.1 | 0.00 | 0.00 | 0.00 | 1010.9 | |
| 20260504192438 | -17 | 10 | 17.7 | 24.1 | 0.00 | 0.00 | 0.00 | 1010.9 | |
| 20260504191930 | -17 | 10 | 17.7 | 22.5 | 0.00 | 0.00 | 0.00 | 1010.8 | |
| 20260504191422 | -17 | 10 | 17.7 | 25.7 | 0.00 | 0.00 | 0.00 | 1010.7 | |
| 20260504190408 | -17 | 10 | 19.3 | 25.7 | 0.00 | 0.00 | 0.00 | 1010.7 | |
| 20260504185901 | -17 | 142 | 19.3 | 25.7 | 0.00 | 0.00 | 0.00 | 1010.6 | |
| 20260504185350 | -17 | 10 | 19.3 | 24.1 | 0.00 | 0.00 | 0.00 | 1011.0 | |
| 20260504184840 | -17 | 10 | 19.3 | 24.1 | 0.00 | 0.00 | 0.00 | 1011.1 | |
| 20260504184329 | -17 | 10 | 19.3 | 25.7 | 0.00 | 0.00 | 0.00 | 1011.1 | |
| 20260504183818 | -17 | 10 | 17.7 | 25.7 | 0.00 | 0.00 | 0.00 | 1010.9 | |
| 20260504183308 | -17 | 145 | 17.7 | 22.5 | 0.00 | 0.00 | 0.00 | 1011.0 | |
| 20260504182758 | -17 | 10 | 19.3 | 22.5 | 0.00 | 0.00 | 0.00 | 1011.0 | |
| 20260504182246 | -17 | 10 | 17.7 | 24.1 | 0.00 | 0.00 | 0.00 | 1010.9 | |
| 20260504181737 | -17 | 153 | 17.7 | 22.5 | 0.00 | 0.00 | 0.00 | 1011.0 | |
| 20260504181227 | -17 | 10 | 17.7 | 22.5 | 0.00 | 0.00 | 0.00 | 1011.3 | |
| 20260504180716 | -17 | 10 | 17.7 | 22.5 | 0.00 | 0.00 | 0.00 | 1011.2 | |
| 20260504180157 | -17 | 10 | 17.7 | 24.1 | 0.00 | 0.00 | 0.00 | 1011.4 | |
| 20260504175646 | -17 | 10 | 17.7 | 24.1 | 0.00 | 0.00 | 0.00 | 1011.5 | |
| 20260504175136 | -17 | 154 | 17.7 | 22.5 | 0.00 | 0.00 | 0.00 | 1011.5 | |
| 20260504174626 | -17 | 157 | 17.7 | 22.5 | 0.00 | 0.00 | 0.00 | 1011.5 | |
| 20260504174349 | -17 | 10 | 17.7 | 22.5 | 0.00 | 0.00 | 0.00 | 1011.6 | |
| 20260504173558 | -17 | 10 | 19.3 | 25.7 | 0.00 | 0.00 | 0.00 | 1011.7 | |
| 20260504173050 | -17 | 10 | 19.3 | 25.7 | 0.00 | 0.00 | 0.00 | 1011.7 | |
| 20260504172538 | -17 | 10 | 17.7 | 24.1 | 0.00 | 0.00 | 0.00 | 1011.6 | |
| 20260504172026 | -17 | 167 | 16.1 | 24.1 | 0.00 | 0.00 | 0.00 | 1011.9 | |
| 20260504171520 | -17 | 212 | 16.1 | 20.9 | 0.00 | 0.00 | 0.00 | 1012.0 | |
| 20260504171010 | -17 | 10 | 17.7 | 25.7 | 0.00 | 0.00 | 0.00 | 1011.9 | |
| 20260504170453 | -17 | 10 | 16.1 | 25.7 | 0.00 | 0.00 | 0.00 | 1011.8 | |
| 20260504151109 | -17 | 10 | 16.1 | 20.9 | 0.00 | 0.00 | 0.00 | 1012.4 | |
| 20260504150600 | -17 | 10 | 16.1 | 20.9 | 0.00 | 0.00 | 0.00 | 1012.4 | |
| 20260504141135 | -17 | 203 | 11.3 | 17.7 | 0.00 | 0.00 | 0.00 | 1012.7 | |
| 20260504140355 | -17 | 10 | 12.9 | 19.3 | 0.00 | 0.00 | 0.00 | 1012.8 | |
| 20260504130146 | -17 | 219 | 6.4 | 11.3 | 0.00 | 0.00 | 0.00 | 1012.3 | |
| 20260504110351 | -17 | 10 | 0.0 | 3.2 | 0.00 | 0.00 | 0.00 | 1012.2 | |
| 20260504100244 | -17 | 109 | 0.0 | 1.6 | 0.00 | 0.00 | 0.00 | 1012.5 | |
| 20260504090118 | -17 | 118 | 0.0 | 3.2 | 0.00 | 0.00 | 0.00 | 1012.9 | |
| 20260504081459 | -17 | 127 | 0.0 | 0.0 | 0.00 | 0.00 | 0.00 | 1013.1 | |
| 20260504080950 | -17 | 127 | 0.0 | 0.0 | 0.00 | 0.00 | 0.00 | 1013.1 | |
| 20260504080439 | -17 | 154 | 0.0 | 0.0 | 0.00 | 0.00 | 0.00 | 1013.3 | |
| 20260504080201 | -17 | 110 | 0.0 | 0.0 | 0.00 | 0.00 | 0.00 | 1013.5 | |
| 20260504070247 | -17 | 140 | 0.0 | 0.0 | 0.00 | 0.00 | 0.00 | 1014.5 | |
| 20260504050354 | -17 | 115 | 4.8 | 6.4 | 0.00 | 0.00 | 0.00 | 1015.6 | |
| 20260504050115 | -17 | 115 | 4.8 | 6.4 | 0.00 | 0.00 | 0.00 | 1015.7 | |
| 20260504045606 | -17 | 117 | 6.4 | 6.4 | 0.00 | 0.00 | 0.00 | 1015.8 | |
| 20260504045055 | -17 | 115 | 6.4 | 9.7 | 0.00 | 0.00 | 0.00 | 1015.8 | |
| 20260504044545 | -17 | 122 | 6.4 | 6.4 | 0.00 | 0.00 | 0.00 | 1015.8 | |
| 20260504043805 | -17 | 10 | 4.8 | 6.4 | 0.00 | 0.00 | 0.00 | 1015.9 | |
| 20260504043254 | -17 | 137 | 4.8 | 6.4 | 0.00 | 0.00 | 0.00 | 1015.9 | |
| 20260504042744 | -17 | 10 | 4.8 | 6.4 | 0.00 | 0.00 | 0.00 | 1015.9 | |
| 20260504042234 | -17 | 127 | 6.4 | 6.4 | 0.00 | 0.00 | 0.00 | 1015.9 | |
| 20260504041734 | -17 | 113 | 6.4 | 6.4 | 0.00 | 0.00 | 0.00 | 1015.9 | |
| 20260504041226 | -17 | 128 | 4.8 | 6.4 | 0.00 | 0.00 | 0.00 | 1015.9 | |
| 20260504040716 | -17 | 110 | 4.8 | 6.4 | 0.00 | 0.00 | 0.00 | 1015.8 | |
| 20260504040206 | -17 | 115 | 4.8 | 6.4 | 0.00 | 0.00 | 0.00 | 1015.9 | |
| 20260504035654 | -17 | 111 | 3.2 | 6.4 | 0.00 | 0.00 | 0.00 | 1015.9 | |
| 20260504035136 | -17 | 108 | 3.2 | 4.8 | 0.00 | 0.00 | 0.00 | 1015.8 | |
| 20260504034626 | -17 | 105 | 3.2 | 4.8 | 0.00 | 0.00 | 0.00 | 1015.8 | |
| 20260504034116 | -17 | 106 | 3.2 | 6.4 | 0.00 | 0.00 | 0.00 | 1015.9 | |
| 20260504033606 | -17 | 107 | 4.8 | 6.4 | 0.00 | 0.00 | 0.00 | 1015.9 | |
| 20260504033056 | -17 | 112 | 6.4 | 6.4 | 0.00 | 0.00 | 0.00 | 1015.9 | |
| 20260504032546 | -17 | 10 | 4.8 | 6.4 | 0.00 | 0.00 | 0.00 | 1015.8 | |
| 20260504032028 | -17 | 10 | 4.8 | 6.4 | 0.00 | 0.00 | 0.00 | 1015.8 | |
| 20260504031525 | -17 | 119 | 3.2 | 6.4 | 0.00 | 0.00 | 0.00 | 1015.8 | |
| 20260504031023 | -17 | 125 | 3.2 | 6.4 | 0.00 | 0.00 | 0.00 | 1015.9 | |
| 20260504030522 | -17 | 118 | 4.8 | 6.4 | 0.00 | 0.00 | 0.00 | 1015.7 | |
| 20260504030002 | -17 | 116 | 6.4 | 6.4 | 0.00 | 0.00 | 0.00 | 1015.6 | |
| 20260504025452 | -17 | 10 | 4.8 | 6.4 | 0.00 | 0.00 | 0.00 | 1015.5 | |
| 20260504024942 | -17 | 10 | 4.8 | 6.4 | 0.00 | 0.00 | 0.00 | 1015.5 | |
| 20260504024433 | -17 | 114 | 6.4 | 6.4 | 0.00 | 0.00 | 0.00 | 1015.6 | |
| 20260504024155 | -17 | 10 | 6.4 | 6.4 | 0.00 | 0.00 | 0.00 | 1015.6 | |
| 20260504023412 | -17 | 123 | 6.4 | 6.4 | 0.00 | 0.00 | 0.00 | 1015.5 | |
| 20260504022902 | -17 | 115 | 6.4 | 8.0 | 0.00 | 0.00 | 0.00 | 1015.5 | |
| 20260504022352 | -17 | 115 | 6.4 | 8.0 | 0.00 | 0.00 | 0.00 | 1015.4 | |
| 20260504021842 | -17 | 114 | 6.4 | 6.4 | 0.00 | 0.00 | 0.00 | 1015.4 | |
| 20260504021332 | -17 | 10 | 6.4 | 6.4 | 0.00 | 0.00 | 0.00 | 1015.4 | |
| 20260504020822 | -17 | 129 | 6.4 | 9.7 | 0.00 | 0.00 | 0.00 | 1015.5 | |
| 20260504020312 | -17 | 115 | 6.4 | 9.7 | 0.00 | 0.00 | 0.00 | 1015.4 | |
| 20260504015806 | -17 | 127 | 6.4 | 6.4 | 0.00 | 0.00 | 0.00 | 1015.4 | |
| 20260504015258 | -17 | 121 | 6.4 | 9.7 | 0.00 | 0.00 | 0.00 | 1015.4 | |
| 20260504014748 | -17 | 123 | 6.4 | 9.7 | 0.00 | 0.00 | 0.00 | 1015.4 | |
| 20260504014238 | -17 | 10 | 4.8 | 9.7 | 0.00 | 0.00 | 0.00 | 1015.4 | |
| 20260504013732 | -17 | 10 | 4.8 | 9.7 | 0.00 | 0.00 | 0.00 | 1015.4 | |
| 20260504013222 | -17 | 123 | 6.4 | 9.7 | 0.00 | 0.00 | 0.00 | 1015.3 | |
| 20260504012208 | -17 | 10 | 6.4 | 12.9 | 0.00 | 0.00 | 0.00 | 1015.4 | |
| 20260504011658 | -17 | 118 | 8.0 | 12.9 | 0.00 | 0.00 | 0.00 | 1015.3 | |
| 20260504011148 | -17 | 138 | 8.0 | 14.5 | 0.00 | 0.00 | 0.00 | 1015.4 | |
| 20260504010639 | -17 | 10 | 8.0 | 12.9 | 0.00 | 0.00 | 0.00 | 1015.4 | |
| 20260504010132 | -17 | 138 | 9.7 | 14.5 | 0.00 | 0.00 | 0.00 | 1015.4 | |
| 20260504005120 | -17 | 10 | 9.7 | 16.1 | 0.00 | 0.00 | 0.00 | 1015.4 | |
| 20260504004618 | -17 | 10 | 9.7 | 16.1 | 0.00 | 0.00 | 0.00 | 1015.4 | |
| 20260504004344 | -17 | 10 | 11.3 | 17.7 | 0.00 | 0.00 | 0.00 | 1015.4 | |
| 20260504003609 | -17 | 10 | 12.9 | 17.7 | 0.00 | 0.00 | 0.00 | 1015.4 | |
| 20260504003102 | -17 | 10 | 12.9 | 16.1 | 0.00 | 0.00 | 0.00 | 1015.4 | |
| 20260504002601 | -17 | 159 | 12.9 | 19.3 | 0.00 | 0.00 | 0.00 | 1015.4 | |
| 20260504002055 | -17 | 10 | 12.9 | 19.3 | 0.00 | 0.00 | 0.00 | 1015.3 | |
| 20260504001550 | -17 | 10 | 11.3 | 17.7 | 0.00 | 0.00 | 0.00 | 1015.3 | |
| 20260504001045 | -17 | 10 | 11.3 | 17.7 | 0.00 | 0.00 | 0.00 | 1015.4 |